EW9007 Weather Reports


time (UTC)temp
C
wind
direction
speed
KPH
gust
KPH
rain 1hr
cm
rain 24hr
cm
rain mn
cm
humidity
%
barometer
mb
20260906184019 31 162 0.0 1.6 0.00 0.00 0.00 59 1015.0
20260906183510 31 146 0.0 1.6 0.00 0.00 0.00 59 1015.1
20260906183003 31 159 0.0 0.0 0.00 0.00 0.00 58 1015.1
20260906182502 31 172 0.0 0.0 0.00 0.00 0.00 59 1015.1
20260906182003 31 157 0.0 0.0 0.00 0.00 0.00 61 1015.1
20260906181503 31 172 0.0 0.0 0.00 0.00 0.00 61 1015.2
20260906181003 31 173 0.0 0.0 0.00 0.00 0.00 61 1015.2
20260906180506 31 166 0.0 0.0 0.00 0.00 0.00 61 1015.2
20260906180004 31 158 0.0 0.0 0.00 0.00 0.00 62 1015.2
20260906175505 30 132 0.0 1.6 0.00 0.00 0.00 63 1015.3
20260906175004 30 193 0.0 1.6 0.00 0.00 0.00 64 1015.3
20260906174504 30 147 0.0 1.6 0.00 0.00 0.00 64 1015.4
20260906174002 30 159 0.0 0.0 0.00 0.00 0.00 65 1015.5
20260906173502 30 173 0.0 1.6 0.00 0.00 0.00 65 1015.5
20260906173004 30 149 0.0 1.6 0.00 0.00 0.00 66 1015.4
20260906172504 30 144 0.0 0.0 0.00 0.00 0.00 66 1015.6
20260906172003 29 101 0.0 0.0 0.00 0.00 0.00 67 1015.7
20260906171502 29 170 0.0 1.6 0.00 0.00 0.00 68 1015.9
20260906171003 29 136 0.0 9.7 0.00 0.00 0.00 69 1015.9
20260906170505 28 171 0.0 9.7 0.00 0.00 0.00 70 1016.1
20260906170003 28 128 0.0 12.9 0.00 0.00 0.00 70 1016.2
20260906165504 28 198 0.0 12.9 0.00 0.00 0.00 70 1016.2
20260906165006 28 140 0.0 11.3 0.00 0.00 0.00 71 1016.1
20260906164505 28 122 0.0 11.3 0.00 0.00 0.00 71 1016.2
20260906164004 28 142 0.0 8.0 0.00 0.00 0.00 72 1016.2
20260906163503 28 136 0.0 4.8 0.00 0.00 0.00 73 1016.3
20260906163005 28 138 0.0 4.8 0.00 0.00 0.00 75 1016.3
20260906162503 27 161 0.0 0.0 0.00 0.00 0.00 76 1016.3
20260906162003 27 107 0.0 11.3 0.00 0.00 0.00 76 1016.3
20260906161505 27 146 0.0 11.3 0.00 0.00 0.00 77 1016.5
20260906161006 27 132 0.0 0.0 0.00 0.00 0.00 77 1016.5
20260906160503 27 119 0.0 0.0 0.00 0.00 0.00 77 1016.4
20260906160003 27 123 0.0 0.0 0.00 0.00 0.00 78 1016.4
20260906155503 27 294 0.0 0.0 0.00 0.00 0.00 79 1016.6
20260906155003 27 294 0.0 0.0 0.00 0.00 0.00 80 1016.5
20260906154509 27 294 0.0 0.0 0.00 0.00 0.00 81 1016.5
20260906154003 26 294 0.0 0.0 0.00 0.00 0.00 80 1016.5
20260906153503 26 294 0.0 0.0 0.00 0.00 0.00 80 1016.7
20260906153011 26 294 0.0 0.0 0.00 0.00 0.00 81 1016.6
20260906152504 26 294 0.0 0.0 0.00 0.00 0.00 81 1016.7
20260906152003 26 296 0.0 0.0 0.00 0.00 0.00 81 1016.5
20260906151505 26 296 0.0 0.0 0.00 0.00 0.00 81 1016.4
20260906151003 26 296 0.0 0.0 0.00 0.00 0.00 81 1016.5
20260906150503 26 268 0.0 11.3 0.00 0.00 0.00 81 1016.5
20260906150010 26 159 0.0 11.3 0.00 0.00 0.00 81 1016.1
20260906145503 26 135 3.2 11.3 0.00 0.00 0.00 82 1015.9
20260906145004 26 138 0.0 12.9 0.00 0.00 0.00 83 1015.9
20260906144508 26 127 3.2 16.1 0.00 0.00 0.00 83 1015.8
20260906144004 26 120 1.6 16.1 0.00 0.00 0.00 83 1015.7
20260906143503 26 110 3.2 14.5 0.00 0.00 0.00 84 1015.7
20260906143007 26 135 1.6 16.1 0.00 0.00 0.00 84 1015.6
20260906142503 26 126 8.0 16.1 0.00 0.00 0.00 84 1015.7
20260906142004 26 135 8.0 16.1 0.00 0.00 0.00 84 1015.8
20260906141505 26 132 4.8 19.3 0.00 0.00 0.00 84 1015.7
20260906141004 26 147 9.7 19.3 0.00 0.00 0.00 85 1015.7
20260906140505 26 155 9.7 20.9 0.00 0.00 0.00 85 1015.8
20260906140006 26 130 11.3 20.9 0.00 0.00 0.00 86 1015.8
20260906135503 26 117 9.7 19.3 0.00 0.00 0.00 87 1015.8
20260906135004 26 150 6.4 19.3 0.00 0.00 0.00 87 1015.9
20260906134511 26 143 3.2 14.5 0.00 0.00 0.00 87 1015.9
20260906134003 26 130 9.7 14.5 0.00 0.00 0.00 87 1015.9
20260906133503 26 119 8.0 14.5 0.00 0.00 0.00 88 1015.9
20260906133016 26 147 6.4 17.7 0.00 0.00 0.00 88 1015.9
20260906132504 26 134 9.7 17.7 0.00 0.00 0.00 89 1016.0
20260906132003 26 162 8.0 16.1 0.00 0.00 0.00 90 1015.9
20260906131509 25 96 3.2 16.1 0.00 0.00 0.00 91 1015.9
20260906131003 25 153 8.0 16.1 0.00 0.00 0.00 91 1015.8
20260906130505 25 108 6.4 16.1 0.00 0.00 0.00 91 1015.7
20260906130009 25 123 8.0 14.5 0.00 0.00 0.00 92 1015.7
20260906125504 25 135 4.8 14.5 0.00 0.00 0.00 92 1015.7
20260906125004 25 120 6.4 14.5 0.00 0.00 0.00 92 1015.5
20260906124509 25 123 6.4 14.5 0.00 0.00 0.00 92 1015.4
20260906124003 25 144 6.4 14.5 0.00 0.00 0.00 92 1015.4
20260906123502 25 134 8.0 14.5 0.00 0.00 0.00 92 1015.2
20260906123022 25 131 6.4 14.5 0.00 0.00 0.00 92 1015.3
20260906122507 25 139 4.8 14.5 0.00 0.00 0.00 92 1015.2
20260906122006 25 121 4.8 14.5 0.00 0.00 0.00 92 1015.2
20260906121510 25 135 4.8 12.9 0.00 0.00 0.00 92 1015.1
20260906121009 25 144 6.4 11.3 0.00 0.00 0.00 92 1015.1
20260906120504 25 142 4.8 12.9 0.00 0.00 0.00 92 1015.2
20260906120013 25 117 4.8 12.9 0.00 0.00 0.00 92 1015.1
20260906115508 24 128 4.8 12.9 0.00 0.00 0.00 91 1015.0
20260906115003 24 115 4.8 12.9 0.00 0.00 0.00 91 1014.8
20260906114514 24 142 4.8 8.0 0.00 0.00 0.00 91 1014.8
20260906114003 24 137 3.2 8.0 0.00 0.00 0.00 90 1014.7
20260906113506 24 135 3.2 9.7 0.00 0.00 0.00 90 1014.7
20260906113011 24 135 4.8 11.3 0.00 0.00 0.00 90 1014.4
20260906112506 24 119 6.4 12.9 0.00 0.00 0.00 90 1014.6
20260906112008 25 123 6.4 12.9 0.00 0.00 0.00 90 1014.5
20260906111511 25 118 4.8 12.9 0.00 0.00 0.00 90 1014.6
20260906111003 24 89 3.2 12.9 0.00 0.00 0.00 90 1014.7
20260906110506 24 144 3.2 6.4 0.00 0.00 0.00 90 1014.8
20260906110012 24 144 3.2 4.8 0.00 0.00 0.00 89 1014.9
20260906105507 24 144 1.6 4.8 0.00 0.00 0.00 89 1014.9
20260906105004 24 144 0.0 0.0 0.00 0.00 0.00 89 1014.9
20260906104512 24 144 0.0 0.0 0.00 0.00 0.00 89 1014.9
20260906104006 24 144 0.0 1.6 0.00 0.00 0.00 89 1014.8
20260906103504 25 144 0.0 1.6 0.00 0.00 0.00 88 1014.7
20260906103012 25 144 0.0 3.2 0.00 0.00 0.00 88 1014.7
20260906102505 25 144 0.0 4.8 0.00 0.00 0.00 88 1014.5
20260906102004 25 144 1.6 6.4 0.00 0.00 0.00 88 1014.4
20260906101524 25 144 1.6 6.4 0.00 0.00 0.00 88 1014.4
20260906101005 25 144 3.2 6.4 0.00 0.00 0.00 88 1014.3
20260906100511 25 144 3.2 8.0 0.00 0.00 0.00 88 1014.3
20260906100017 25 144 3.2 11.3 0.00 0.00 0.00 88 1014.3
20260906095507 25 131 3.2 11.3 0.00 0.00 0.00 87 1014.2
20260906095004 25 142 1.6 6.4 0.00 0.00 0.00 87 1014.1
20260906094513 25 142 1.6 4.8 0.00 0.00 0.00 87 1014.1
20260906094007 25 142 1.6 4.8 0.00 0.00 0.00 87 1014.2
20260906093508 25 142 1.6 6.4 0.00 0.00 0.00 87 1014.3
20260906093017 25 142 4.8 6.4 0.00 0.00 0.00 86 1014.3
20260906092508 25 142 3.2 8.0 0.00 0.00 0.00 86 1014.2
20260906092013 25 142 1.6 8.0 0.00 0.00 0.00 86 1014.2
20260906091516 25 142 3.2 8.0 0.00 0.00 0.00 86 1014.2
20260906091008 25 142 3.2 6.4 0.00 0.00 0.00 85 1014.2
20260906090505 25 142 3.2 8.0 0.00 0.00 0.00 85 1014.2
20260906090035 25 142 4.8 8.0 0.00 0.00 0.00 85 1014.2
20260906085508 25 142 3.2 6.4 0.00 0.00 0.00 85 1014.3
20260906085010 25 142 3.2 6.4 0.00 0.00 0.00 85 1014.3
20260906084512 25 142 1.6 8.0 0.00 0.00 0.00 85 1014.3
20260906084005 25 142 1.6 8.0 0.00 0.00 0.00 85 1014.3
20260906083508 25 134 0.0 6.4 0.00 0.00 0.00 85 1014.3
20260906083017 25 134 3.2 8.0 0.00 0.00 0.00 85 1014.2
20260906082506 25 140 3.2 11.3 0.00 0.00 0.00 85 1014.2
20260906082006 25 140 3.2 11.3 0.00 0.00 0.00 84 1014.1
20260906081503 25 133 3.2 11.3 0.00 0.00 0.00 84 1014.2
20260906081002 25 128 4.8 11.3 0.00 0.00 0.00 84 1014.1
20260906080504 25 134 4.8 9.7 0.00 0.00 0.00 84 1014.2
20260906080004 25 144 3.2 9.7 0.00 0.00 0.00 84 1014.2
20260906075503 25 144 4.8 11.3 0.00 0.00 0.00 84 1014.2
20260906075006 25 142 4.8 11.3 0.00 0.00 0.00 84 1014.2
20260906074507 25 145 4.8 11.3 0.00 0.00 0.00 83 1014.2
20260906074003 25 121 6.4 11.3 0.00 0.00 0.00 83 1014.2
20260906073504 25 131 3.2 11.3 0.00 0.00 0.00 83 1014.2
20260906073012 25 157 4.8 12.9 0.00 0.00 0.00 82 1014.1
20260906072510 26 145 3.2 14.5 0.00 0.00 0.00 82 1014.1
20260906072005 26 152 8.0 16.1 0.00 0.00 0.00 82 1014.2
20260906071508 26 134 6.4 16.1 0.00 0.00 0.00 82 1014.2
20260906071010 26 122 8.0 14.5 0.00 0.00 0.00 82 1014.3
20260906070505 26 149 6.4 12.9 0.00 0.00 0.00 82 1014.4
20260906070004 26 142 4.8 12.9 0.00 0.00 0.00 82 1014.3
20260906065507 26 141 4.8 12.9 0.00 0.00 0.00 82 1014.3
20260906065003 26 128 4.8 12.9 0.00 0.00 0.00 82 1014.3
20260906064504 26 140 4.8 12.9 0.00 0.00 0.00 82 1014.4
20260906064003 26 140 3.2 9.7 0.00 0.00 0.00 82 1014.3
20260906063504 26 111 4.8 11.3 0.00 0.00 0.00 82 1014.5
20260906063005 26 130 3.2 11.3 0.00 0.00 0.00 82 1014.6
20260906062504 26 143 3.2 11.3 0.00 0.00 0.00 82 1014.7
20260906062006 26 134 3.2 11.3 0.00 0.00 0.00 82 1014.6
20260906061518 26 111 3.2 8.0 0.00 0.00 0.00 82 1014.6
20260906061002 26 127 4.8 9.7 0.00 0.00 0.00 82 1014.6
20260906060506 26 140 3.2 11.3 0.00 0.00 0.00 81 1014.6
20260906060016 26 101 4.8 12.9 0.00 0.00 0.00 81 1014.6
20260906055505 26 146 3.2 12.9 0.00 0.00 0.00 81 1014.6
20260906055004 26 141 3.2 11.3 0.00 0.00 0.00 81 1014.7
20260906054513 26 128 3.2 11.3 0.00 0.00 0.00 80 1014.6
20260906054003 26 136 3.2 11.3 0.00 0.00 0.00 80 1014.5
20260906053503 26 138 4.8 11.3 0.00 0.00 0.00 80 1014.6
20260906053007 26 127 4.8 14.5 0.00 0.00 0.00 80 1014.6
20260906052504 26 117 3.2 14.5 0.00 0.00 0.00 79 1014.6
20260906052008 26 124 6.4 12.9 0.00 0.00 0.00 79 1014.7
20260906051506 26 129 4.8 11.3 0.00 0.00 0.00 79 1014.6
20260906051008 26 123 4.8 11.3 0.00 0.00 0.00 79 1014.4
20260906050506 27 138 6.4 12.9 0.00 0.00 0.00 79 1014.5
20260906050004 27 138 4.8 12.9 0.00 0.00 0.00 79 1014.4
20260906045504 27 126 6.4 14.5 0.00 0.00 0.00 79 1014.6
20260906045012 27 138 4.8 14.5 0.00 0.00 0.00 79 1014.4
20260906044524 27 98 6.4 12.9 0.00 0.00 0.00 79 1014.4
20260906044006 27 128 6.4 12.9 0.00 0.00 0.00 79 1014.5
20260906043503 27 127 3.2 11.3 0.00 0.00 0.00 79 1014.3
20260906043005 27 113 3.2 12.9 0.00 0.00 0.00 78 1014.5
20260906042503 27 112 4.8 12.9 0.00 0.00 0.00 78 1014.4
20260906042004 27 104 4.8 12.9 0.00 0.00 0.00 78 1014.4
20260906041508 27 118 3.2 11.3 0.00 0.00 0.00 78 1014.3
20260906041007 27 103 4.8 11.3 0.00 0.00 0.00 78 1014.5
20260906040503 27 98 4.8 11.3 0.00 0.00 0.00 78 1014.5
20260906040022 27 93 4.8 11.3 0.00 0.00 0.00 77 1014.5
20260906035509 27 108 4.8 11.3 0.00 0.00 0.00 77 1014.5
20260906035004 27 122 4.8 11.3 0.00 0.00 0.00 77 1014.6
20260906034508 27 98 3.2 6.4 0.00 0.00 0.00 77 1014.5
20260906034008 27 110 3.2 11.3 0.00 0.00 0.00 77 1014.5
20260906033510 27 102 3.2 11.3 0.00 0.00 0.00 76 1014.4
20260906033005 27 105 1.6 6.4 0.00 0.00 0.00 76 1014.4
20260906032507 27 115 3.2 6.4 0.00 0.00 0.00 76 1014.4
20260906032004 27 100 1.6 9.7 0.00 0.00 0.00 75 1014.4
20260906031504 27 89 1.6 9.7 0.00 0.00 0.00 75 1014.3
20260906031003 28 89 3.2 9.7 0.00 0.00 0.00 75 1014.3
20260906030504 28 100 3.2 9.7 0.00 0.00 0.00 75 1014.1
20260906030012 28 120 3.2 11.3 0.00 0.00 0.00 74 1014.0
20260906025507 28 120 3.2 11.3 0.00 0.00 0.00 74 1013.8
20260906025005 28 121 4.8 11.3 0.00 0.00 0.00 74 1013.8
20260906024518 28 121 3.2 11.3 0.00 0.00 0.00 74 1013.8
20260906024014 28 135 3.2 11.3 0.00 0.00 0.00 74 1013.7
20260906023506 28 148 4.8 11.3 0.00 0.00 0.00 74 1013.5
20260906023016 28 88 6.4 12.9 0.00 0.00 0.00 73 1013.4
20260906022511 28 108 4.8 12.9 0.00 0.00 0.00 73 1013.6
20260906022004 28 87 4.8 11.3 0.00 0.00 0.00 73 1013.4
20260906021512 28 85 3.2 9.7 0.00 0.00 0.00 72 1013.4
20260906021004 28 81 3.2 9.7 0.00 0.00 0.00 72 1013.3
20260906020513 28 94 3.2 11.3 0.00 0.00 0.00 72 1013.2
20260906020011 28 103 4.8 12.9 0.00 0.00 0.00 71 1013.0
20260906015504 29 98 4.8 12.9 0.00 0.00 0.00 71 1012.9
20260906015004 29 99 3.2 9.7 0.00 0.00 0.00 70 1012.8
20260906014517 29 97 1.6 9.7 0.00 0.00 0.00 70 1012.9
20260906014005 29 86 3.2 12.9 0.00 0.00 0.00 70 1012.8
20260906013509 29 101 4.8 12.9 0.00 0.00 0.00 69 1012.7
20260906013016 30 90 6.4 12.9 0.00 0.00 0.00 69 1012.6
20260906012503 30 77 3.2 8.0 0.00 0.00 0.00 68 1012.7
20260906012008 30 39 3.2 8.0 0.00 0.00 0.00 68 1012.7
20260906011527 30 32 0.0 4.8 0.00 0.00 0.00 67 1012.6
20260906011016 30 65 0.0 4.8 0.00 0.00 0.00 67 1012.4
20260906010504 30 100 0.0 1.6 0.00 0.00 0.00 66 1012.5
20260906010023 30 111 0.0 1.6 0.00 0.00 0.00 66 1012.5
20260906005502 31 49 0.0 0.0 0.00 0.00 0.00 65 1012.4
20260906005006 31 36 0.0 4.8 0.00 0.00 0.00 64 1012.3
20260906004508 31 72 0.0 6.4 0.00 0.00 0.00 64 1012.3
20260906004007 31 117 0.0 8.0 0.00 0.00 0.00 63 1012.2
20260906003507 31 134 0.0 11.3 0.00 0.00 0.00 63 1012.2
20260906003011 31 113 0.0 11.3 0.00 0.00 0.00 62 1012.1
20260906002507 31 132 0.0 6.4 0.00 0.00 0.00 61 1012.1
20260906002011 31 137 1.6 6.4 0.00 0.00 0.00 61 1012.1
20260906001506 31 149 0.0 8.0 0.00 0.00 0.00 60 1012.1
20260906001003 32 127 0.0 8.0 0.00 0.00 0.00 60 1012.1
20260906000514 32 144 0.0 8.0 0.00 0.00 0.00 60 1012.2
20260906000027 32 116 0.0 6.4 0.00 0.00 0.00 59 1012.3
20260905235507 32 120 0.0 11.3 0.00 0.00 0.00 59 1012.3
20260905235009 32 140 0.0 11.3 0.00 0.00 0.00 58 1012.3
20260905234520 32 127 3.2 11.3 0.00 0.00 0.00 58 1012.3
20260905234006 32 144 0.0 11.3 0.00 0.00 0.00 57 1012.2
20260905233510 32 142 3.2 12.9 0.00 0.00 0.00 57 1012.2
20260905233011 32 129 1.6 12.9 0.00 0.00 0.00 56 1012.2
20260905232502 32 136 1.6 11.3 0.00 0.00 0.00 56 1012.2
20260905232006 32 111 0.0 6.4 0.00 0.00 0.00 56 1012.1
20260905231003 33 142 0.0 8.0 0.00 0.00 0.00 55 1012.0
20260905230503 33 133 0.0 9.7 0.00 0.00 0.00 54 1012.0
20260905230009 33 148 0.0 9.7 0.00 0.00 0.00 55 1012.0
20260905225503 33 126 0.0 6.4 0.00 0.00 0.00 56 1012.0
20260905225003 33 125 0.0 6.4 0.00 0.00 0.00 55 1012.0
20260905224503 32 127 0.0 6.4 0.00 0.00 0.00 56 1012.1
20260905224005 32 136 0.0 6.4 0.00 0.00 0.00 56 1012.0
20260905223514 32 141 0.0 4.8 0.00 0.00 0.00 55 1012.0
20260905223006 32 140 0.0 6.4 0.00 0.00 0.00 55 1012.0
20260905222508 32 119 0.0 8.0 0.00 0.00 0.00 55 1012.0
20260905222010 32 166 0.0 12.9 0.00 0.00 0.00 55 1011.9
20260905221506 32 163 0.0 12.9 0.00 0.00 0.00 54 1011.8
20260905221004 32 128 0.0 16.1 0.00 0.00 0.00 54 1011.8
20260905220507 32 145 0.0 16.1 0.00 0.00 0.00 54 1011.8
20260905220018 32 127 0.0 16.1 0.00 0.00 0.00 53 1011.9
20260905215504 32 129 0.0 16.1 0.00 0.00 0.00 53 1012.0
20260905215003 32 134 0.0 12.9 0.00 0.00 0.00 54 1012.1
20260905214503 32 147 0.0 12.9 0.00 0.00 0.00 53 1012.0
20260905214004 32 112 0.0 6.4 0.00 0.00 0.00 53 1012.2
20260905213503 32 152 0.0 11.3 0.00 0.00 0.00 53 1012.2
20260905213003 32 108 0.0 11.3 0.00 0.00 0.00 53 1012.3
20260905212513 32 113 0.0 9.7 0.00 0.00 0.00 52 1012.4
20260905212003 32 97 0.0 11.3 0.00 0.00 0.00 52 1012.6
20260905211510 32 124 1.6 11.3 0.00 0.00 0.00 52 1012.6
20260905211010 32 128 1.6 11.3 0.00 0.00 0.00 51 1012.7
20260905210502 32 114 0.0 14.5 0.00 0.00 0.00 50 1012.8
20260905210007 32 136 0.0 14.5 0.00 0.00 0.00 51 1012.9
20260905205507 32 131 0.0 17.7 0.00 0.00 0.00 52 1012.9
20260905205010 32 110 0.0 17.7 0.00 0.00 0.00 51 1013.0
20260905204503 32 126 0.0 17.7 0.00 0.00 0.00 52 1013.0
20260905204007 32 104 6.4 17.7 0.00 0.00 0.00 51 1013.2
20260905203510 32 128 1.6 16.1 0.00 0.00 0.00 50 1013.3
20260905203003 32 121 0.0 14.5 0.00 0.00 0.00 51 1013.4
20260905202504 32 103 0.0 19.3 0.00 0.00 0.00 53 1013.5
20260905202003 32 105 1.6 19.3 0.00 0.00 0.00 54 1013.7
20260905201523 32 133 3.2 19.3 0.00 0.00 0.00 52 1013.8
20260905201006 32 86 0.0 14.5 0.00 0.00 0.00 53 1014.0
20260905200504 32 121 0.0 17.7 0.00 0.00 0.00 52 1014.1
20260905200010 32 126 1.6 17.7 0.00 0.00 0.00 52 1014.1
20260905195511 32 127 1.6 16.1 0.00 0.00 0.00 52 1014.2
20260905195005 32 76 1.6 12.9 0.00 0.00 0.00 54 1014.1
20260905194512 32 118 0.0 20.9 0.00 0.00 0.00 54 1014.1
20260905194013 32 105 4.8 22.5 0.00 0.00 0.00 53 1014.3
20260905193503 32 86 4.8 22.5 0.00 0.00 0.00 54 1014.3
20260905193007 32 89 4.8 17.7 0.00 0.00 0.00 55 1014.5
20260905192512 32 135 3.2 17.7 0.00 0.00 0.00 55 1014.6
20260905192013 32 94 3.2 22.5 0.00 0.00 0.00 55 1014.6
20260905191503 32 42 6.4 22.5 0.00 0.00 0.00 55 1014.7
20260905191004 32 98 4.8 19.3 0.00 0.00 0.00 55 1014.9
20260905190504 32 109 3.2 20.9 0.00 0.00 0.00 57 1015.1
20260905190007 31 111 3.2 24.1 0.00 0.00 0.00 57 1015.1
20260905185504 31 82 8.0 29.0 0.00 0.00 0.00 57 1015.3
20260905185010 31 107 9.7 29.0 0.00 0.00 0.00 57 1015.5
20260905184527 31 76 3.2 24.1 0.00 0.00 0.00 58 1015.5